Location: Kartal Da??
(36.5727°N, 30.0787°E)
Time: 11:01:08
(UTC+00:00)

Daily predictions for brighter satellites

Satellite Brightness Start Highest point End
(mag) Time Altitude Azimuth Time Altitude Azimuth Time Altitude Azimuth
SL-8 Rocket 4.1 16:55:47 10° SSE 17:01:52 56° E 17:08:00 10° NNE
USA 238 DEB 4.4 16:55:48 10° NNW 17:03:07 49° NE 17:10:58 10° SE
USA 238 4.4 16:55:59 10° NNW 17:03:18 49° NE 17:11:08 10° SE
Spot 4 Rocket 4.2 16:59:12 10° SSE 17:04:18 82° WSW 17:09:27 10° NNW
Cosmos 2278 Rocket 2.4 17:00:21 10° NNW 17:05:55 55° ENE 17:11:26 10° SE
OAO 3 Copernicus 4.3 17:03:01 10° W 17:08:01 76° S 17:13:01 10° E
Timation 2 Rocket 4.4 17:03:14 10° NNW 17:09:32 52° ENE 17:16:02 10° SE
SL-8 R/B 4.0 17:06:30 10° WSW 17:11:13 70° NNW 17:15:56 10° NE
OAO 2 Rocket 3.4 17:06:33 10° WSW 17:11:43 67° S 17:16:47 10° E
Cosmos 1125 Rocket 3.5 17:06:52 10° S 17:11:58 59° ESE 17:17:08 10° NNE
Cosmos 2341 Rocket 4.0 17:08:24 10° S 17:14:35 70° E 17:20:52 10° NNE
ERS-1 Rocket 4.4 17:14:30 10° ESE 17:18:01 20° ENE 17:21:31 10° NNE
Cosmos 2366 rocket 3.9 17:13:19 10° S 17:19:25 71° E 17:25:32 10° N
COBE Rocket 4.4 17:15:55 10° N 17:20:59 71° WNW 17:26:05 10° SSW
In-Cosmos 22 Rocket 4.1 17:18:35 10° N 17:23:55 89° E 17:29:16 10° S
Cosmos 44 3.5 17:24:09 10° S 17:28:53 51° ESE 17:33:55 10° NE
SL-16 R/B 2.7 17:26:17 10° S 17:31:22 36° ESE 17:36:30 10° NE
NOSS 3 (A) 3.5 17:32:06 10° SSW 17:34:03 45° ESE 17:35:25 13° NE
Okean O Rocket 3.6 17:38:37 11° ENE 17:39:35 11° ENE 17:40:55 10° NE
Cosmos 1378 Rocket 4.1 17:37:35 10° N 17:41:40 38° E 17:44:32 17° SE
Longmarch 3A Rocket 4.4 17:37:58 10° SW 17:44:53 17° S 17:47:36 12° SSE
SPOT 5 2.6 17:41:34 10° SSE 17:46:09 84° ENE 17:50:34 10° N
CZ-4 R/B 1.4 17:43:55 17° SSE 17:46:35 50° ENE 17:50:11 10° N
Cosmos 1656 Rocket 4.3 17:48:05 10° N 17:53:11 38° ENE 17:56:02 23° ESE
Cosmos 1821 Rocket 4.0 17:48:40 10° S 17:54:55 89° E 18:01:18 10° N
IRAS Rocket 4.1 17:49:56 10° SSE 17:55:24 80° ENE 18:00:54 10° NNW
Terra 2.4 17:53:32 23° ESE 17:55:50 37° ENE 18:00:09 10° N
Cosmos 1733 Rocket 3.5 17:52:00 10° SSW 17:56:18 65° W 18:00:40 10° N
CZ-4B R/B 3.6 17:55:16 16° SSE 17:58:11 90° WSW 18:02:02 10° NNW
Cosmos 1025 Rocket 3.8 17:54:43 10° NNE 17:58:34 32° ENE 17:59:43 28° ESE
Cosmos 2237 Rocket 4.1 17:54:21 10° WSW 17:59:24 32° WNW 18:04:29 10° N
Resurs 01 Rocket 4.4 17:58:45 10° SW 18:01:41 18° W 18:04:39 10° NW
Cosmos 2242 Rocket 3.5 17:57:40 10° N 18:02:06 88° W 18:05:50 14° S
Helios 1A Rocket 2.6 17:59:47 10° N 18:02:58 66° WNW 18:06:06 10° SSW
CSL-04 Rocket 3.9 17:59:09 10° S 18:04:40 74° WSW 18:10:14 10° NNW
Meteor 2-15 Rocket 4.5 17:58:52 10° S 18:04:56 82° W 18:11:03 10° N
Cosmos 2150 Rocket 4.0 18:00:58 10° S 18:05:58 58° ESE 18:11:03 10° NNE
Meteor 2-16 Rocket 4.5 18:11:11 10° N 18:17:16 61° E 18:20:28 28° SSE
USA 59 Rocket 0.0 18:16:39 10° NNW 18:20:27 90° WSW 18:22:12 39° SSE
Gbstr 26 Del rocket 3.3 18:14:55 10° SW 18:20:33 67° SE 18:24:22 15° NE
Cosmos 1346 Rocket 2.5 18:17:13 10° N 18:20:46 59° E 18:20:53 59° E
OAO 3 Rocket 3.2 18:16:17 10° W 18:20:52 61° SSW 18:22:04 45° SE
Feng Yun 1-1 Rocket 4.2 18:17:09 20° SSE 18:21:04 86° WSW 18:26:31 10° NNW
ASTEX 1 3.8 18:20:30 38° ESE 18:21:25 42° ENE 18:26:02 10° N
SL-4 R/B 1.6 18:18:33 10° SW 18:22:20 81° SE 18:23:54 34° NE
Cosmos 1943 Rocket 4.2 18:18:26 10° NW 18:22:52 24° W 18:27:16 10° SSW
Meteor 1-31 Rocket 3.8 18:21:37 18° SSW 18:23:50 38° W 18:27:09 10° NNW
Dummy Sat-02 4.4 18:24:50 60° S 18:25:27 87° E 18:29:02 10° N
ADEOS 3.5 18:25:50 36° SSE 18:28:00 76° ENE 18:33:13 10° N
Cosmos 1869 4.2 18:32:16 31° NE 18:32:16 31° NE 18:34:23 10° NNE
MOS 1 4.3 18:27:43 25° S 18:31:11 80° WSW 18:36:52 10° NNW
CBERS 1 LM4 rocket 4.3 18:29:52 35° S 18:31:52 80° WSW 18:36:38 10° NNW
Cosmos 2285 Rocket 4.0 18:25:56 10° SSW 18:32:18 89° WNW 18:38:41 10° NNE
Cosmos 2369 Rocket 2.8 18:27:10 10° N 18:32:19 37° ENE 18:33:12 34° E
USA 234 3.7 18:28:20 10° NE 18:34:47 64° NW 18:41:14 10° WSW
SL-08 R/B 3.5 18:33:44 10° N 18:38:38 76° WNW 18:42:30 16° SSW
Cosmos 1943 3.2 18:41:49 52° SE 18:42:23 54° ESE 18:47:54 10° NNE
CZ-4B R/B 3.4 18:41:50 33° S 18:44:27 73° WSW 18:50:07 10° NNW
Cosmos 2221 Rocket 3.4 18:40:47 10° N 18:45:12 78° E 18:45:17 78° E
YAOGAN 11 3.9 18:41:07 10° NNE 18:45:26 88° E 18:45:52 73° S
SL-08 R/B 4.4 18:45:14 10° N 18:51:29 76° E 18:53:09 51° SSE
OAO 2 Rocket 3.2 18:51:05 10° W 18:56:04 71° SSW 18:56:04 71° SSW
ERS-1 Rocket 3.9 18:54:02 26° SSW 18:56:20 43° W 19:01:06 10° NNW
NOSS 2-1 (D) 4.4 18:56:07 10° NW 18:59:51 42° WSW 19:00:11 41° SW
Okean-O 2.9 19:07:13 65° NW 19:07:13 65° NW 19:11:01 10° NNW
NOSS 2-1 (E) 4.3 19:04:17 10° NW 19:07:43 45° WSW 19:07:43 45° WSW
Cosmos 1934 Rocket 4.4 19:10:21 26° SSW 19:13:56 60° W 19:20:05 10° N
CZ-4B R/B 4.3 19:15:34 38° NNE 19:15:34 38° NNE 19:18:50 10° N
Okean O Rocket 2.3 19:15:51 52° WNW 19:15:51 52° WNW 19:19:29 10° NNW
SL-16 R/B 4.1 19:10:39 10° WSW 19:15:28 28° WNW 19:20:19 10° N
Ariane Rocket 3.9 19:17:09 37° NNE 19:17:09 37° NNE 19:20:39 10° N
Spot 2 Rocket 4.0 19:23:16 52° WSW 19:23:18 52° W 19:28:13 10° NNW
Milstar 3 4.0 19:17:33 10° SW 19:41:40 - E 19:24:35 44° S
USA 245 4.5 19:28:49 54° NNW 19:28:49 54° NNW 19:32:56 10° NNW
ATLAS 5 CENTAUR R/B 4.3 19:31:25 10° NNE 19:31:56 11° NNE 19:31:56 11° NNE
Terra 3.9 19:32:10 17° WSW 19:33:26 19° W 19:36:45 10° NW
Cosmos 1140 Rocket 4.2 19:29:12 10° NNW 19:32:51 46° N 19:32:51 46° N
NOSS 3-1 (C) 4.0 19:26:54 10° NNW 19:34:29 81° ENE 19:35:43 68° SE
Cosmos 967 Rocket 4.5 19:32:02 10° NNW 19:38:09 80° WNW 19:38:09 80° WNW
BREEZE-M DEB (TANK) 3.8 19:39:55 10° NW 19:43:52 64° NE 19:43:55 64° NE
COSMOS 2455 3.8 19:53:49 10° NNW 19:58:10 41° NNE 19:58:10 41° NNE
SJ 16-02 4.1 20:03:29 10° N 20:04:02 13° N 20:04:02 13° N
Cosmos 2369 Rocket 3.9 20:11:30 10° NW 20:15:00 25° W 20:15:00 25° W
NOSS 3-1 (A) 4.2 20:26:34 10° NNW 20:33:20 74° NNW 20:33:20 74° NNW
ATLAS 2AS CENTAUR R/B 3.9 21:38:07 37° N 21:38:07 37° N 21:42:22 10° NNE
ACS3 Solar Sail 4.0 21:59:31 10° NE 22:01:13 16° NE 22:01:13 16° NE
Cosmos 1980 Rocket 4.3 22:24:41 10° NNW 22:26:39 22° N 22:26:39 22° N
ATLAS 3B R/B 3.8 22:51:00 10° NNW 22:55:41 41° NNW 22:55:41 41° NNW
Cosmos 2082 Rocket 4.0 23:02:51 27° N 23:02:51 27° N 23:05:29 10° NNE
Cosmos 2333 Rocket 4.3 22:57:30 10° N 23:01:38 20° NE 23:02:07 20° ENE
SL-16 R/B 3.6 23:23:43 10° N 23:27:50 34° NE 23:27:50 34° NE
ACS3 Solar Sail 2.9 23:41:00 10° N 23:44:47 35° NNW 23:44:47 35° NNW
IDEFIX/ARIANE 42P 4.0 23:43:28 10° NNE 23:46:20 34° N 23:46:20 34° N
ADEOS Rocket 3.7 23:43:52 10° NNE 23:51:33 66° E 23:52:01 65° ESE
